{"data":{"norad_id":44506,"epoch":"2026-09-19T09:07:44.412960Z","epoch_age_seconds":111112,"freshness":"FRESH","line1":"1 44506U 19056A   26262.38037515 -.00000082  00000+0  00000+0 0  9999","line2":"2 44506  55.5845 327.3954 0066001 200.1969 161.5484  2.00571711 51960","mean_motion":2.00571711,"eccentricity":0.0066001,"inclination_deg":55.5845,"raan_deg":327.3954,"arg_perigee_deg":200.1969,"mean_anomaly_deg":161.5484,"bstar":0,"rev_number":5196,"period_min":717.94770699244,"perigee_km":20006.198881584,"apogee_km":20356.791337356,"semimajor_km":26559.63210947,"source":"CELESTRAK","updated_at":"2026-09-20T09:00:46.119743Z"}}